STARLINK-35313

Last updated on Mon Oct 20 2025 00:02:06 GMT+0000 (Coordinated Universal Time)

1 65758U 25216AA 25292.23077028 .00130708 00000+0 23159-2 0 9996 2 65758 53.1588 272.2156 0001087 87.9304 272.1830 15.49348282 4817
UTC large
Height (km)
Speed (km/s)
/
Latitude / Longitude
Inclination (degrees)
Orbital Period (minutes)
Azimuth
Elevation
Range (km)
Doppler Factor

Next 0 passes for location: London (51.5072 / 0.1276)

Sorry there are no passes over London.